SWA214 KDEN-TIST

Flight info

Callsign SWA214
Flight time N/A
Altitude 35000
Route EPKEE7 DUUZE DCT TUL DCT LITTR/N0435F370 DCT MGM DCT OMN Y185 ATTIK DCT BEERD Y185 RENAH Y355 KOLAO DCT JETSS DCT
Aircraft B737/M-SDE2E3FGHIRWXY/LB1

Departure

Time N/A
Airport Denver International Airport (KDEN)

Arrival

Time 2026-04-30 01:42
Airport Cyril E. King Airport (TIST)
Time Latitude Longitude Altitude Speed Heading
2026-04-29 23:40 26.81788 -77.24300 34990 ft 454 kts 124°
2026-04-29 23:40 26.80072 -77.21370 34988 ft 456 kts 124°
2026-04-29 23:40 26.76575 -77.15409 34993 ft 456 kts 124°
2026-04-29 23:41 26.73107 -77.09504 34990 ft 455 kts 124°
2026-04-29 23:41 26.69626 -77.03586 34994 ft 456 kts 124°
2026-04-29 23:42 26.66150 -76.97686 34996 ft 456 kts 123°
2026-04-29 23:42 26.62653 -76.91756 34996 ft 457 kts 123°
2026-04-29 23:43 26.59160 -76.85842 35000 ft 456 kts 123°
2026-04-29 23:43 26.55681 -76.79958 34999 ft 457 kts 123°
2026-04-29 23:44 26.52161 -76.74014 35005 ft 457 kts 123°
2026-04-29 23:44 26.48669 -76.68124 35003 ft 457 kts 123°
2026-04-29 23:45 26.45146 -76.62189 35002 ft 456 kts 123°
2026-04-29 23:45 26.41644 -76.56297 35010 ft 460 kts 123°
2026-04-29 23:46 26.38110 -76.50362 35016 ft 458 kts 123°
2026-04-29 23:46 26.34599 -76.44470 35030 ft 458 kts 123°
2026-04-29 23:47 26.31078 -76.38570 35025 ft 457 kts 123°
2026-04-29 23:47 26.27554 -76.32673 35025 ft 458 kts 123°
2026-04-29 23:48 26.24017 -76.26760 35029 ft 459 kts 123°
2026-04-29 23:48 26.20481 -76.20857 35028 ft 459 kts 123°
2026-04-29 23:49 26.16959 -76.14986 35027 ft 458 kts 123°
2026-04-29 23:49 26.13415 -76.09086 35026 ft 458 kts 123°
2026-04-29 23:50 26.09875 -76.03199 35027 ft 457 kts 123°
2026-04-29 23:51 26.04576 -75.94402 35027 ft 457 kts 123°
2026-04-29 23:51 26.01040 -75.88540 35026 ft 457 kts 123°
2026-04-29 23:52 25.97500 -75.82681 35029 ft 458 kts 123°
2026-04-29 23:52 25.93944 -75.76805 35021 ft 457 kts 123°
2026-04-29 23:53 25.90374 -75.70908 35025 ft 459 kts 122°
2026-04-29 23:53 25.86814 -75.65036 35021 ft 457 kts 123°
2026-04-29 23:54 25.83275 -75.59206 35024 ft 457 kts 123°
2026-04-29 23:54 25.79714 -75.53350 35021 ft 458 kts 123°
2026-04-29 23:55 25.76137 -75.47475 35028 ft 458 kts 123°
2026-04-29 23:55 25.72553 -75.41595 35020 ft 457 kts 123°
2026-04-29 23:56 25.68999 -75.35770 35019 ft 459 kts 123°
2026-04-29 23:56 25.65416 -75.29905 35024 ft 459 kts 123°
2026-04-29 23:57 25.61824 -75.24034 35013 ft 461 kts 123°
2026-04-29 23:57 25.58230 -75.18167 35012 ft 458 kts 123°
2026-04-29 23:58 25.54631 -75.12299 35024 ft 459 kts 123°
2026-04-29 23:58 25.51033 -75.06439 35026 ft 458 kts 123°
2026-04-29 23:59 25.47444 -75.00603 35024 ft 458 kts 123°
2026-04-29 23:59 25.43847 -74.94760 35024 ft 457 kts 123°
2026-04-30 00:00 25.40288 -74.88987 35027 ft 459 kts 123°
2026-04-30 00:00 25.36687 -74.83151 35022 ft 459 kts 123°
2026-04-30 00:01 25.33064 -74.77288 35028 ft 459 kts 123°
2026-04-30 00:01 25.29447 -74.71442 35017 ft 462 kts 123°
2026-04-30 00:02 25.25830 -74.65604 35028 ft 460 kts 123°
2026-04-30 00:02 25.22220 -74.59782 35025 ft 461 kts 124°
2026-04-30 00:03 25.18578 -74.53916 35035 ft 460 kts 124°
2026-04-30 00:03 25.14955 -74.48089 35025 ft 460 kts 124°
2026-04-30 00:04 25.11348 -74.42296 35036 ft 461 kts 124°
2026-04-30 00:04 25.07704 -74.36449 35029 ft 461 kts 124°
2026-04-30 00:05 25.04077 -74.30637 35023 ft 459 kts 124°
2026-04-30 00:05 25.00473 -74.24869 35031 ft 459 kts 124°
2026-04-30 00:06 24.96849 -74.19076 35027 ft 461 kts 124°
2026-04-30 00:06 24.93202 -74.13253 35025 ft 458 kts 124°
2026-04-30 00:07 24.89565 -74.07452 35030 ft 460 kts 124°
2026-04-30 00:07 24.85934 -74.01670 35005 ft 459 kts 124°
2026-04-30 00:08 24.82324 -73.95925 35013 ft 460 kts 124°
2026-04-30 00:08 24.78654 -73.90093 35017 ft 461 kts 124°
2026-04-30 00:09 24.74984 -73.84270 35024 ft 463 kts 125°
2026-04-30 00:09 24.71325 -73.78469 35020 ft 462 kts 125°
2026-04-30 00:10 24.67646 -73.72644 35022 ft 462 kts 125°
2026-04-30 00:10 24.64005 -73.66886 35023 ft 462 kts 125°
2026-04-30 00:11 24.60304 -73.61041 35024 ft 464 kts 125°
2026-04-30 00:11 24.56630 -73.55243 35020 ft 464 kts 125°
2026-04-30 00:12 24.53148 -73.49239 35025 ft 465 kts 121°
2026-04-30 00:12 24.49910 -73.43112 35023 ft 464 kts 120°
2026-04-30 00:13 24.46689 -73.36984 35022 ft 465 kts 121°
2026-04-30 00:13 24.43424 -73.30857 35025 ft 464 kts 122°
2026-04-30 00:14 24.40129 -73.24739 35021 ft 465 kts 122°
2026-04-30 00:14 24.36821 -73.18631 35025 ft 465 kts 122°
2026-04-30 00:15 24.33515 -73.12544 35029 ft 465 kts 122°
2026-04-30 00:15 24.30198 -73.06447 35027 ft 464 kts 122°
2026-04-30 00:16 24.26893 -73.00382 35025 ft 465 kts 122°
2026-04-30 00:16 24.23580 -72.94307 35027 ft 464 kts 122°
2026-04-30 00:17 24.20270 -72.88248 35029 ft 466 kts 123°
2026-04-30 00:17 24.16950 -72.82176 35031 ft 467 kts 123°
2026-04-30 00:18 24.13611 -72.76077 35032 ft 467 kts 123°
2026-04-30 00:18 24.10256 -72.69958 35025 ft 466 kts 123°
2026-04-30 00:19 24.06913 -72.63866 35025 ft 468 kts 123°
2026-04-30 00:19 24.04194 -72.58918 35027 ft 467 kts 123°
2026-04-30 00:20 24.01669 -72.54326 35031 ft 466 kts 123°
2026-04-30 00:20 23.98340 -72.48282 35026 ft 467 kts 123°
2026-04-30 00:21 23.94984 -72.42197 35027 ft 467 kts 123°
2026-04-30 00:21 23.91623 -72.36107 35026 ft 470 kts 123°
2026-04-30 00:22 23.88245 -72.29997 35033 ft 468 kts 124°
2026-04-30 00:22 23.84857 -72.23872 35025 ft 469 kts 124°
2026-04-30 00:23 23.81495 -72.17805 35025 ft 470 kts 124°
2026-04-30 00:23 23.78100 -72.11682 35023 ft 469 kts 124°
2026-04-30 00:24 23.74720 -72.05599 35023 ft 471 kts 124°
2026-04-30 00:24 23.71327 -71.99498 35025 ft 471 kts 125°
2026-04-30 00:25 23.67921 -71.93381 35025 ft 471 kts 124°
2026-04-30 00:25 23.64520 -71.87280 35022 ft 472 kts 125°
2026-04-30 00:26 23.61114 -71.81181 35021 ft 470 kts 126°
2026-04-30 00:26 23.57402 -71.75310 35023 ft 469 kts 131°
2026-04-30 00:27 23.53452 -71.69691 35025 ft 467 kts 132°
2026-04-30 00:27 23.49624 -71.64315 35017 ft 469 kts 132°
2026-04-30 00:28 23.44509 -71.57066 35019 ft 470 kts 132°
2026-04-30 00:29 23.40553 -71.51414 35017 ft 470 kts 131°
2026-04-30 00:29 23.36580 -71.45715 35023 ft 470 kts 132°
2026-04-30 00:30 23.32642 -71.40062 35020 ft 470 kts 132°
2026-04-30 00:30 23.28707 -71.34419 35021 ft 471 kts 133°
2026-04-30 00:31 23.24739 -71.28733 35021 ft 470 kts 133°
2026-04-30 00:31 23.20770 -71.23053 35021 ft 471 kts 133°
2026-04-30 00:32 23.16783 -71.17354 35018 ft 471 kts 133°
2026-04-30 00:32 23.12798 -71.11664 35024 ft 472 kts 133°
2026-04-30 00:33 23.08845 -71.06027 35015 ft 472 kts 133°
2026-04-30 00:33 23.04845 -71.00327 35011 ft 471 kts 133°
2026-04-30 00:34 23.00864 -70.94660 35010 ft 471 kts 133°
2026-04-30 00:34 22.96883 -70.88998 35008 ft 471 kts 133°
2026-04-30 00:35 22.92924 -70.83377 35012 ft 470 kts 133°
2026-04-30 00:35 22.88913 -70.77694 35013 ft 473 kts 133°
2026-04-30 00:36 22.84910 -70.72034 35013 ft 473 kts 133°
2026-04-30 00:36 22.80898 -70.66375 35014 ft 474 kts 134°
2026-04-30 00:37 22.76902 -70.60738 35016 ft 473 kts 133°
2026-04-30 00:37 22.72873 -70.55057 35020 ft 472 kts 134°
2026-04-30 00:38 22.68866 -70.49419 35022 ft 474 kts 134°
2026-04-30 00:38 22.64868 -70.43798 35023 ft 472 kts 134°
2026-04-30 00:39 22.60845 -70.38148 35022 ft 473 kts 134°
2026-04-30 00:39 22.56814 -70.32491 35021 ft 472 kts 134°
2026-04-30 00:40 22.52792 -70.26854 35019 ft 473 kts 134°
2026-04-30 00:40 22.48800 -70.21264 35019 ft 473 kts 134°
2026-04-30 00:41 22.44775 -70.15633 35019 ft 472 kts 134°
2026-04-30 00:41 22.40758 -70.10021 35021 ft 474 kts 135°
2026-04-30 00:42 22.36720 -70.04387 35013 ft 475 kts 134°
2026-04-30 00:42 22.32667 -69.98737 35015 ft 474 kts 134°
2026-04-30 00:43 22.28632 -69.93117 35016 ft 474 kts 134°
2026-04-30 00:43 22.24587 -69.87491 35015 ft 474 kts 135°
2026-04-30 00:44 22.20539 -69.81863 35014 ft 475 kts 135°
2026-04-30 00:44 22.16469 -69.76215 35015 ft 476 kts 135°
2026-04-30 00:45 22.12421 -69.70600 35015 ft 474 kts 135°
2026-04-30 00:45 22.08348 -69.64961 35013 ft 475 kts 135°
2026-04-30 00:46 22.04294 -69.59350 35017 ft 476 kts 135°
2026-04-30 00:46 22.00218 -69.53718 35016 ft 476 kts 135°
2026-04-30 00:47 21.96122 -69.48060 35017 ft 477 kts 135°
2026-04-30 00:47 21.92041 -69.42431 35020 ft 476 kts 135°
2026-04-30 00:48 21.87966 -69.36815 35023 ft 478 kts 135°
2026-04-30 00:48 21.83884 -69.31192 35024 ft 477 kts 135°
2026-04-30 00:49 21.79788 -69.25558 35023 ft 475 kts 135°
2026-04-30 00:49 21.75690 -69.19929 35020 ft 478 kts 135°
2026-04-30 00:50 21.71595 -69.14311 35019 ft 476 kts 135°
2026-04-30 00:50 21.67507 -69.08704 35016 ft 476 kts 136°
2026-04-30 00:51 21.63412 -69.03100 35014 ft 478 kts 135°
2026-04-30 00:51 21.59307 -68.97485 35014 ft 477 kts 136°
2026-04-30 00:52 21.55191 -68.91861 35013 ft 478 kts 136°
2026-04-30 00:52 21.51064 -68.86230 35009 ft 478 kts 136°
2026-04-30 00:53 21.46953 -68.80622 35005 ft 478 kts 136°
2026-04-30 00:53 21.42814 -68.74982 35001 ft 477 kts 136°
2026-04-30 00:54 21.38702 -68.69384 34997 ft 478 kts 136°
2026-04-30 00:54 21.34569 -68.63767 34996 ft 478 kts 135°
2026-04-30 00:55 21.30465 -68.58189 34993 ft 478 kts 135°
2026-04-30 00:55 21.24265 -68.49780 34996 ft 478 kts 136°
2026-04-30 00:56 21.20158 -68.44216 34992 ft 479 kts 135°
2026-04-30 00:56 21.15318 -68.37667 34995 ft 480 kts 135°
2026-04-30 00:57 21.11858 -68.32989 34991 ft 479 kts 136°
2026-04-30 00:57 21.07719 -68.27395 34994 ft 478 kts 136°
2026-04-30 00:58 21.03555 -68.21777 34988 ft 479 kts 136°
2026-04-30 00:58 21.00580 -68.17763 35000 ft 478 kts 136°
2026-04-30 00:59 20.96527 -68.12287 34988 ft 463 kts 136°
2026-04-30 00:59 20.92511 -68.06879 34987 ft 464 kts 136°
2026-04-30 01:00 20.88501 -68.01495 34989 ft 466 kts 136°
2026-04-30 01:00 20.84480 -67.96088 34988 ft 465 kts 135°
2026-04-30 01:01 20.80500 -67.90633 34988 ft 465 kts 135°
2026-04-30 01:01 20.76544 -67.85173 34988 ft 465 kts 135°
2026-04-30 01:02 20.72590 -67.79717 34990 ft 463 kts 135°
2026-04-30 01:02 20.68642 -67.74293 34988 ft 465 kts 135°
2026-04-30 01:03 20.64683 -67.68860 34988 ft 464 kts 135°
2026-04-30 01:03 20.60695 -67.63396 34989 ft 462 kts 135°
2026-04-30 01:04 20.56743 -67.57987 34987 ft 461 kts 135°
2026-04-30 01:04 20.52796 -67.52595 34989 ft 462 kts 135°
2026-04-30 01:05 20.48818 -67.47167 34990 ft 463 kts 135°
2026-04-30 01:05 20.44850 -67.41756 34988 ft 464 kts 135°
2026-04-30 01:06 20.40894 -67.36369 34990 ft 462 kts 135°
2026-04-30 01:06 20.36906 -67.30937 34986 ft 463 kts 135°
2026-04-30 01:07 20.32964 -67.25573 34991 ft 463 kts 135°
2026-04-30 01:07 20.28979 -67.20155 34989 ft 461 kts 135°
2026-04-30 01:08 20.25038 -67.14801 34989 ft 460 kts 135°
2026-04-30 01:08 20.21053 -67.09394 34989 ft 461 kts 135°
2026-04-30 01:09 20.17062 -67.03982 34990 ft 461 kts 135°
2026-04-30 01:09 20.13087 -66.98601 34992 ft 462 kts 135°
2026-04-30 01:10 20.09131 -66.93250 34991 ft 458 kts 135°
2026-04-30 01:10 20.05194 -66.87927 34990 ft 460 kts 135°
2026-04-30 01:11 20.01214 -66.82549 34992 ft 461 kts 134°
2026-04-30 01:11 19.97660 -66.76883 34992 ft 467 kts 126°
2026-04-30 01:12 19.94535 -66.70806 34988 ft 467 kts 123°
2026-04-30 01:12 19.91527 -66.64659 34989 ft 470 kts 122°
2026-04-30 01:13 19.88519 -66.58521 34988 ft 468 kts 123°
2026-04-30 01:13 19.85497 -66.52417 34986 ft 467 kts 123°
2026-04-30 01:14 19.82454 -66.46317 34986 ft 469 kts 122°
2026-04-30 01:14 19.79397 -66.40211 34987 ft 469 kts 123°
2026-04-30 01:15 19.76333 -66.34111 34986 ft 468 kts 123°
2026-04-30 01:15 19.73275 -66.28027 34983 ft 468 kts 123°
2026-04-30 01:16 19.70220 -66.21957 34983 ft 466 kts 123°
2026-04-30 01:16 19.68711 -66.18958 34861 ft 464 kts 123°
2026-04-30 01:16 19.67190 -66.15934 34443 ft 458 kts 123°
2026-04-30 01:17 19.65714 -66.12998 33895 ft 454 kts 123°
2026-04-30 01:17 19.64234 -66.10060 33310 ft 450 kts 123°
2026-04-30 01:17 19.62767 -66.07149 32867 ft 444 kts 123°
2026-04-30 01:17 19.61321 -66.04277 32392 ft 440 kts 122°
2026-04-30 01:18 19.59884 -66.01430 31878 ft 437 kts 123°
2026-04-30 01:18 19.58452 -65.98596 31355 ft 434 kts 123°
2026-04-30 01:18 19.57043 -65.95811 30837 ft 431 kts 122°
2026-04-30 01:18 19.55628 -65.93015 30317 ft 427 kts 122°
2026-04-30 01:19 19.54242 -65.90276 29807 ft 424 kts 122°
2026-04-30 01:19 19.52847 -65.87516 29288 ft 421 kts 122°
2026-04-30 01:19 19.51465 -65.84783 28774 ft 417 kts 122°
2026-04-30 01:19 19.50114 -65.82121 28277 ft 413 kts 122°
2026-04-30 01:20 19.48763 -65.79456 27782 ft 410 kts 122°
2026-04-30 01:20 19.47408 -65.76787 27273 ft 406 kts 122°
2026-04-30 01:20 19.46095 -65.74197 26784 ft 402 kts 122°
2026-04-30 01:20 19.44773 -65.71590 26291 ft 398 kts 122°
2026-04-30 01:21 19.43479 -65.69038 25810 ft 395 kts 122°
2026-04-30 01:21 19.42182 -65.66477 25323 ft 391 kts 122°
2026-04-30 01:21 19.40900 -65.63947 24841 ft 387 kts 122°
2026-04-30 01:21 19.39640 -65.61465 24366 ft 383 kts 122°
2026-04-30 01:22 19.38391 -65.59006 23905 ft 379 kts 122°
2026-04-30 01:22 19.37158 -65.56583 23450 ft 375 kts 122°
2026-04-30 01:22 19.35920 -65.54153 22985 ft 371 kts 122°
2026-04-30 01:22 19.34709 -65.51776 22534 ft 367 kts 122°
2026-04-30 01:23 19.33493 -65.49390 22089 ft 364 kts 122°
2026-04-30 01:23 19.32231 -65.47113 21608 ft 359 kts 127°
2026-04-30 01:23 19.30656 -65.45101 21159 ft 349 kts 141°
2026-04-30 01:23 19.28715 -65.43639 20704 ft 340 kts 155°
2026-04-30 01:24 19.26558 -65.42643 20243 ft 333 kts 165°
2026-04-30 01:24 19.24374 -65.41929 19828 ft 328 kts 168°
2026-04-30 01:24 19.22162 -65.41327 19414 ft 324 kts 170°
2026-04-30 01:24 19.19984 -65.40772 19011 ft 321 kts 170°
2026-04-30 01:25 19.17835 -65.40230 18659 ft 316 kts 170°
2026-04-30 01:25 19.15688 -65.39683 18293 ft 312 kts 170°
2026-04-30 01:25 19.13587 -65.39142 17906 ft 310 kts 169°
2026-04-30 01:25 19.11505 -65.38601 17512 ft 308 kts 169°
2026-04-30 01:26 19.09413 -65.38052 17124 ft 306 kts 169°
2026-04-30 01:26 19.07363 -65.37511 16744 ft 304 kts 169°
2026-04-30 01:26 19.05312 -65.36972 16361 ft 301 kts 169°
2026-04-30 01:26 19.03239 -65.36430 15982 ft 313 kts 169°
2026-04-30 01:27 19.01106 -65.35873 15582 ft 318 kts 168°
2026-04-30 01:27 18.98983 -65.35317 15186 ft 314 kts 168°
2026-04-30 01:27 18.96855 -65.34758 14792 ft 310 kts 168°
2026-04-30 01:27 18.94754 -65.34205 14398 ft 306 kts 168°
2026-04-30 01:28 18.92711 -65.33669 14017 ft 302 kts 168°
2026-04-30 01:28 18.90664 -65.33131 13638 ft 298 kts 168°
2026-04-30 01:28 18.88682 -65.32610 13269 ft 295 kts 168°
2026-04-30 01:28 18.86680 -65.32084 12895 ft 292 kts 168°
2026-04-30 01:29 18.84725 -65.31571 12529 ft 289 kts 168°
2026-04-30 01:29 18.82779 -65.31062 12168 ft 286 kts 168°
2026-04-30 01:29 18.80845 -65.30557 11808 ft 283 kts 167°
2026-04-30 01:29 18.78936 -65.30060 11454 ft 280 kts 167°
2026-04-30 01:30 18.77043 -65.29566 11102 ft 277 kts 167°
2026-04-30 01:30 18.75127 -65.29067 10751 ft 291 kts 167°
2026-04-30 01:30 18.73132 -65.28545 10371 ft 296 kts 167°
2026-04-30 01:30 18.71144 -65.28027 9997 ft 292 kts 166°
2026-04-30 01:31 18.69185 -65.27515 9744 ft 284 kts 166°
2026-04-30 01:31 18.67278 -65.27016 9397 ft 280 kts 166°
2026-04-30 01:31 18.65382 -65.26520 9044 ft 278 kts 166°
2026-04-30 01:31 18.63510 -65.26032 8699 ft 275 kts 166°
2026-04-30 01:32 18.61679 -65.25555 8363 ft 272 kts 166°
2026-04-30 01:32 18.59852 -65.25078 8028 ft 269 kts 165°
2026-04-30 01:32 18.58024 -65.24601 7689 ft 266 kts 165°
2026-04-30 01:32 18.56253 -65.24138 7363 ft 263 kts 165°
2026-04-30 01:33 18.54459 -65.23668 7034 ft 261 kts 165°
2026-04-30 01:33 18.52708 -65.23207 6709 ft 258 kts 165°
2026-04-30 01:33 18.50967 -65.22751 6387 ft 256 kts 165°
2026-04-30 01:33 18.49226 -65.22453 6073 ft 255 kts 178°
2026-04-30 01:34 18.47462 -65.22591 5769 ft 253 kts 186°
2026-04-30 01:34 18.45820 -65.22813 5491 ft 251 kts 186°
2026-04-30 01:34 18.44002 -65.23066 5217 ft 264 kts 186°
2026-04-30 01:34 18.42195 -65.23317 5022 ft 259 kts 186°
2026-04-30 01:35 18.40436 -65.23563 4826 ft 251 kts 186°
2026-04-30 01:35 18.38725 -65.23806 4625 ft 238 kts 186°
2026-04-30 01:35 18.37124 -65.24043 4411 ft 225 kts 186°
2026-04-30 01:35 18.35612 -65.24273 4180 ft 216 kts 186°
2026-04-30 01:36 18.34132 -65.24375 3915 ft 207 kts 168°
2026-04-30 01:36 18.32892 -65.23750 3629 ft 196 kts 133°
2026-04-30 01:36 18.32228 -65.22557 3373 ft 188 kts 103°
2026-04-30 01:36 18.32011 -65.21219 3140 ft 184 kts 95°
2026-04-30 01:37 18.32039 -65.19895 2961 ft 176 kts 83°
2026-04-30 01:37 18.32186 -65.18617 2973 ft 179 kts 83°
2026-04-30 01:37 18.32334 -65.17312 2824 ft 182 kts 83°
2026-04-30 01:37 18.32486 -65.15988 2599 ft 177 kts 83°
2026-04-30 01:38 18.32628 -65.14765 2483 ft 164 kts 83°
2026-04-30 01:38 18.32764 -65.13592 2310 ft 156 kts 83°
2026-04-30 01:38 18.32887 -65.12509 2331 ft 149 kts 83°
2026-04-30 01:38 18.33016 -65.11379 2388 ft 156 kts 83°
2026-04-30 01:39 18.33145 -65.10217 2358 ft 157 kts 84°
2026-04-30 01:39 18.33168 -65.09068 2141 ft 160 kts 93°
2026-04-30 01:39 18.33186 -65.07890 1875 ft 161 kts 85°
2026-04-30 01:39 18.33271 -65.06719 1624 ft 161 kts 85°
2026-04-30 01:40 18.33362 -65.05547 1386 ft 160 kts 86°
2026-04-30 01:40 18.33412 -65.04374 1177 ft 158 kts 86°
2026-04-30 01:40 18.33465 -65.03223 977 ft 153 kts 86°
2026-04-30 01:40 18.33515 -65.02187 794 ft 135 kts 86°
2026-04-30 01:41 18.33562 -65.01224 630 ft 130 kts 86°
2026-04-30 01:41 18.33605 -65.00267 446 ft 130 kts 87°
2026-04-30 01:41 18.33646 -64.99309 247 ft 132 kts 86°
2026-04-30 01:41 18.33686 -64.98343 60 ft 131 kts 87°
2026-04-30 01:42 18.33726 -64.97447 27 ft 103 kts 86°
2026-04-30 01:42 18.33740 -64.97096 30 ft 16 kts 88°
2026-04-30 01:42 18.33748 -64.96890 30 ft 35 kts 88°
2026-04-30 01:42 18.33717 -64.96684 28 ft 17 kts 168°
2026-04-30 01:43 18.33670 -64.96808 30 ft 24 kts 267°
2026-04-30 01:43 18.33661 -64.97018 30 ft 28 kts 268°
2026-04-30 01:43 18.33656 -64.97171 30 ft 21 kts 268°
2026-04-30 01:43 18.33647 -64.97247 29 ft 7 kts 222°
2026-04-30 01:44 18.33599 -64.97252 28 ft 4 kts 176°
2026-04-30 01:44 18.33566 -64.97250 28 ft 2 kts 177°
2026-04-30 01:44 18.33563 -64.97250 29 ft 0 kts 177°